1 Minute Report
Date Time Wind Direction Wind Speed Wind Gust Wind Variable Altimeter Temperature Dewpoint Relative Humidity Visibility Ceiling Precip Present Weather Density Alt Wind Chill Heat Index
17/08/17 05:40 000 00 N/A N/A 30.11 46(F), 8(C) 45(F), 7(C) 93% 7 CLR N/A N/A N/A 46 F N/A 4600
17/08/17 05:39 000 00 N/A N/A 30.11 47(F), 8(C) 45(F), 7(C) 93% 7 CLR N/A N/A N/A 47 F N/A 4599
17/08/17 05:38 000 00 N/A N/A 30.11 47(F), 8(C) 45(F), 7(C) 93% 7 CLR N/A N/A N/A 47 F N/A 4598
17/08/17 05:37 000 00 N/A N/A 30.11 47(F), 8(C) 45(F), 7(C) 93% 7 CLR N/A N/A N/A 47 F N/A 4597
17/08/17 05:36 000 00 N/A N/A 30.11 47(F), 8(C) 45(F), 7(C) 93% 7 CLR N/A N/A N/A 47 F N/A 4596
17/08/17 05:35 000 00 N/A N/A 30.11 47(F), 8(C) 45(F), 7(C) 93% 7 CLR N/A N/A N/A 47 F N/A 4595
17/08/17 05:34 000 00 N/A N/A 30.11 47(F), 8(C) 45(F), 7(C) 93% 7 CLR N/A N/A N/A 47 F N/A 4594
17/08/17 05:33 000 00 N/A N/A 30.11 47(F), 8(C) 45(F), 7(C) 93% 7 CLR N/A N/A N/A 47 F N/A 4593
17/08/17 05:32 000 00 N/A N/A 30.11 47(F), 8(C) 45(F), 7(C) 93% 7 CLR N/A N/A N/A 47 F N/A 4592
17/08/17 05:31 000 00 N/A N/A 30.11 47(F), 8(C) 45(F), 7(C) 93% 7 CLR N/A N/A N/A 47 F N/A 4591
17/08/17 05:30 000 00 N/A N/A 30.11 47(F), 8(C) 46(F), 8(C) 100% 7 CLR N/A N/A N/A 47 F N/A 4590
17/08/17 05:29 000 00 N/A N/A 30.11 47(F), 8(C) 46(F), 8(C) 100% 7 CLR N/A N/A N/A 47 F N/A 4589
17/08/17 05:28 000 00 N/A N/A 30.11 48(F), 9(C) 46(F), 8(C) 93% 7 CLR N/A N/A N/A 48 F N/A 4588
17/08/17 05:27 000 00 N/A N/A 30.11 48(F), 9(C) 46(F), 8(C) 93% 7 CLR N/A N/A N/A 48 F N/A 4587
17/08/17 05:26 000 00 N/A N/A 30.11 48(F), 9(C) 47(F), 8(C) 93% 7 CLR N/A N/A N/A 48 F N/A 4586
17/08/17 05:25 000 00 N/A N/A 30.11 48(F), 9(C) 47(F), 8(C) 93% 7 CLR N/A N/A N/A 48 F N/A 4585
17/08/17 05:24 000 00 N/A N/A 30.11 48(F), 9(C) 47(F), 8(C) 93% 7 CLR N/A N/A N/A 48 F N/A 4584
17/08/17 05:23 000 00 N/A N/A 30.11 48(F), 9(C) 47(F), 8(C) 93% 7 CLR N/A N/A N/A 48 F N/A 4583
17/08/17 05:22 000 00 N/A N/A 30.11 48(F), 9(C) 47(F), 8(C) 93% 7 CLR N/A N/A N/A 48 F N/A 4582
17/08/17 05:21 000 00 N/A N/A 30.11 48(F), 9(C) 47(F), 8(C) 93% 7 CLR N/A N/A N/A 48 F N/A 4581
17/08/17 05:20 000 00 N/A N/A 30.12 48(F), 9(C) 47(F), 8(C) 93% 7 CLR N/A N/A N/A 48 F N/A 4580
17/08/17 05:19 000 00 N/A N/A 30.12 48(F), 9(C) 47(F), 8(C) 93% 7 CLR N/A N/A N/A 48 F N/A 4579
17/08/17 05:18 000 00 N/A N/A 30.12 48(F), 9(C) 47(F), 8(C) 93% 7 CLR N/A N/A N/A 48 F N/A 4578
17/08/17 05:17 000 00 N/A N/A 30.12 48(F), 9(C) 47(F), 8(C) 93% 7 CLR N/A N/A N/A 48 F N/A 4577
17/08/17 05:16 000 00 N/A N/A 30.12 48(F), 9(C) 47(F), 8(C) 93% 7 CLR N/A N/A N/A 48 F N/A 4576
17/08/17 05:15 000 00 N/A N/A 30.12 48(F), 9(C) 47(F), 8(C) 93% 7 CLR N/A N/A N/A 48 F N/A 4575
17/08/17 05:14 000 00 N/A N/A 30.12 48(F), 9(C) 47(F), 8(C) 93% 7 CLR N/A N/A N/A 48 F N/A 4574
17/08/17 05:13 000 00 N/A N/A 30.12 48(F), 9(C) 47(F), 8(C) 93% 7 CLR N/A N/A N/A 48 F N/A 4573
17/08/17 05:12 000 00 N/A N/A 30.12 47(F), 8(C) 46(F), 8(C) 100% 7 CLR N/A N/A N/A 47 F N/A 4572
17/08/17 05:11 000 00 N/A N/A 30.12 47(F), 8(C) 46(F), 8(C) 100% 7 CLR N/A N/A N/A 47 F N/A 4571
17/08/17 05:10 000 00 N/A N/A 30.12 47(F), 8(C) 46(F), 8(C) 100% 7 CLR N/A N/A N/A 47 F N/A 4570
17/08/17 05:09 000 00 N/A N/A 30.12 47(F), 8(C) 45(F), 7(C) 93% 7 CLR N/A N/A N/A 47 F N/A 4569
17/08/17 05:08 000 00 N/A N/A 30.12 46(F), 8(C) 45(F), 7(C) 93% 7 CLR N/A N/A N/A 46 F N/A 4568
17/08/17 05:07 000 00 N/A N/A 30.12 46(F), 8(C) 45(F), 7(C) 93% 7 CLR N/A N/A N/A 46 F N/A 4567
17/08/17 05:06 000 00 N/A N/A 30.12 46(F), 8(C) 45(F), 7(C) 93% 7 CLR N/A N/A N/A 46 F N/A 4566
17/08/17 05:05 000 00 N/A N/A 30.12 47(F), 8(C) 45(F), 7(C) 93% 7 CLR N/A N/A N/A 47 F N/A 4565
17/08/17 05:04 000 00 N/A N/A 30.12 47(F), 8(C) 45(F), 7(C) 93% 7 CLR N/A N/A N/A 47 F N/A 4564
17/08/17 05:03 000 00 N/A N/A 30.12 47(F), 8(C) 45(F), 7(C) 93% 7 CLR N/A N/A N/A 47 F N/A 4563
17/08/17 05:02 000 00 N/A N/A 30.12 47(F), 8(C) 45(F), 7(C) 93% 7 CLR N/A N/A N/A 47 F N/A 4562
17/08/17 05:01 000 00 N/A N/A 30.12 47(F), 8(C) 45(F), 7(C) 93% 7 CLR N/A N/A N/A 47 F N/A 4561
17/08/17 05:00 000 00 N/A N/A 30.11 47(F), 8(C) 45(F), 7(C) 93% 7 CLR N/A N/A N/A 47 F N/A 4560
17/08/17 04:59 000 00 N/A N/A 30.11 47(F), 8(C) 46(F), 8(C) 100% 7 CLR N/A N/A N/A 47 F N/A 4559
17/08/17 04:58 000 00 N/A N/A 30.11 47(F), 8(C) 46(F), 8(C) 100% 7 CLR N/A N/A N/A 47 F N/A 4558
17/08/17 04:57 000 00 N/A N/A 30.11 47(F), 8(C) 46(F), 8(C) 100% 7 CLR N/A N/A N/A 47 F N/A 4557
17/08/17 04:56 000 00 N/A N/A 30.11 47(F), 8(C) 46(F), 8(C) 100% 7 CLR N/A N/A N/A 47 F N/A 4556
17/08/17 04:55 000 00 N/A N/A 30.11 47(F), 8(C) 46(F), 8(C) 100% 7 CLR N/A N/A N/A 47 F N/A 4555
17/08/17 04:54 000 00 N/A N/A 30.11 47(F), 8(C) 46(F), 8(C) 100% 7 CLR N/A N/A N/A 47 F N/A 4554
17/08/17 04:53 000 00 N/A N/A 30.11 47(F), 8(C) 46(F), 8(C) 100% 7 CLR N/A N/A N/A 47 F N/A 4553
17/08/17 04:52 000 00 N/A N/A 30.11 47(F), 8(C) 46(F), 8(C) 100% 7 CLR N/A N/A N/A 47 F N/A 4552
17/08/17 04:51 000 00 N/A N/A 30.11 47(F), 8(C) 46(F), 8(C) 100% 7 CLR N/A N/A N/A 47 F N/A 4551
17/08/17 04:50 000 00 N/A N/A 30.11 47(F), 8(C) 46(F), 8(C) 100% 7 CLR N/A N/A N/A 47 F N/A 4550
17/08/17 04:49 000 00 N/A N/A 30.11 47(F), 8(C) 46(F), 8(C) 100% 7 CLR N/A N/A N/A 47 F N/A 4549
17/08/17 04:48 000 00 N/A N/A 30.11 47(F), 8(C) 46(F), 8(C) 100% 7 CLR N/A N/A N/A 47 F N/A 4548
17/08/17 04:47 000 00 N/A N/A 30.11 48(F), 9(C) 46(F), 8(C) 93% 7 CLR N/A N/A N/A 48 F N/A 4547
17/08/17 04:46 000 00 N/A N/A 30.11 48(F), 9(C) 46(F), 8(C) 93% 7 CLR N/A N/A N/A 48 F N/A 4546
17/08/17 04:45 000 00 N/A N/A 30.11 48(F), 9(C) 46(F), 8(C) 93% 7 CLR N/A N/A N/A 48 F N/A 4545
17/08/17 04:44 000 00 N/A N/A 30.11 47(F), 8(C) 46(F), 8(C) 100% 7 CLR N/A N/A N/A 47 F N/A 4544
17/08/17 04:43 000 00 N/A N/A 30.11 47(F), 8(C) 46(F), 8(C) 100% 7 CLR N/A N/A N/A 47 F N/A 4543
17/08/17 04:42 000 00 N/A N/A 30.11 47(F), 8(C) 46(F), 8(C) 100% 7 CLR N/A N/A N/A 47 F N/A 4542
17/08/17 04:41 000 00 N/A N/A 30.11 47(F), 8(C) 46(F), 8(C) 100% 7 CLR N/A N/A N/A 47 F N/A 4541
17/08/17 04:40 000 00 N/A N/A 30.11 47(F), 8(C) 46(F), 8(C) 100% 7 CLR N/A N/A N/A 47 F N/A 4540
17/08/17 04:39 000 00 N/A N/A 30.11 47(F), 8(C) 46(F), 8(C) 100% 10 CLR N/A N/A N/A 47 F N/A 4539
17/08/17 04:38 000 00 N/A N/A 30.11 47(F), 8(C) 46(F), 8(C) 100% 10 CLR N/A N/A N/A 47 F N/A 4538
17/08/17 04:37 000 00 N/A N/A 30.11 47(F), 8(C) 46(F), 8(C) 100% 10 CLR N/A N/A N/A 47 F N/A 4537
17/08/17 04:36 000 00 N/A N/A 30.11 47(F), 8(C) 46(F), 8(C) 100% 10 CLR N/A N/A N/A 47 F N/A 4536
17/08/17 04:35 000 00 N/A N/A 30.11 47(F), 8(C) 46(F), 8(C) 100% 7 CLR N/A N/A N/A 47 F N/A 4535
17/08/17 04:34 000 00 N/A N/A 30.11 47(F), 8(C) 46(F), 8(C) 100% 7 CLR N/A N/A N/A 47 F N/A 4534
17/08/17 04:33 000 00 N/A N/A 30.11 47(F), 8(C) 46(F), 8(C) 100% 7 CLR N/A N/A N/A 47 F N/A 4533
17/08/17 04:32 000 00 N/A N/A 30.11 47(F), 8(C) 46(F), 8(C) 100% 7 CLR N/A N/A N/A 47 F N/A 4532
17/08/17 04:31 000 00 N/A N/A 30.11 47(F), 8(C) 46(F), 8(C) 100% 7 CLR N/A N/A N/A 47 F N/A 4531
17/08/17 04:30 000 00 N/A N/A 30.11 47(F), 8(C) 46(F), 8(C) 100% 7 CLR N/A N/A N/A 47 F N/A 4530
17/08/17 04:29 000 00 N/A N/A 30.11 47(F), 8(C) 46(F), 8(C) 100% 7 CLR N/A N/A N/A 47 F N/A 4529
17/08/17 04:28 000 00 N/A N/A 30.11 47(F), 8(C) 46(F), 8(C) 100% 7 CLR N/A N/A N/A 47 F N/A 4528
17/08/17 04:27 000 00 N/A N/A 30.11 47(F), 8(C) 46(F), 8(C) 100% 7 CLR N/A N/A N/A 47 F N/A 4527
17/08/17 04:26 000 00 N/A N/A 30.11 47(F), 8(C) 46(F), 8(C) 100% 7 CLR N/A N/A N/A 47 F N/A 4526
17/08/17 04:25 000 00 N/A N/A 30.11 47(F), 8(C) 46(F), 8(C) 100% 5 CLR N/A N/A N/A 47 F N/A 4525
17/08/17 04:24 000 00 N/A N/A 30.11 48(F), 9(C) 46(F), 8(C) 93% 5 CLR N/A N/A N/A 48 F N/A 4524
17/08/17 04:23 000 00 N/A N/A 30.11 48(F), 9(C) 46(F), 8(C) 93% 5 CLR N/A N/A N/A 48 F N/A 4523
17/08/17 04:22 000 00 N/A N/A 30.11 48(F), 9(C) 46(F), 8(C) 93% 5 CLR N/A N/A N/A 48 F N/A 4522
17/08/17 04:21 000 00 N/A N/A 30.12 48(F), 9(C) 46(F), 8(C) 93% 5 CLR N/A N/A N/A 48 F N/A 4521
17/08/17 04:20 000 00 N/A N/A 30.12 48(F), 9(C) 46(F), 8(C) 93% 5 CLR N/A N/A N/A 48 F N/A 4520
17/08/17 04:19 000 00 N/A N/A 30.12 48(F), 9(C) 46(F), 8(C) 93% 5 CLR N/A N/A N/A 48 F N/A 4519
17/08/17 04:18 000 00 N/A N/A 30.12 48(F), 9(C) 46(F), 8(C) 93% 5 CLR N/A N/A N/A 48 F N/A 4518
17/08/17 04:17 000 00 N/A N/A 30.11 48(F), 9(C) 46(F), 8(C) 93% 5 CLR N/A N/A N/A 48 F N/A 4517
17/08/17 04:16 000 00 N/A N/A 30.11 48(F), 9(C) 46(F), 8(C) 93% 5 CLR N/A N/A N/A 48 F N/A 4516
17/08/17 04:15 000 00 N/A N/A 30.11 48(F), 9(C) 47(F), 8(C) 93% 7 CLR N/A N/A N/A 48 F N/A 4515
17/08/17 04:14 000 00 N/A N/A 30.11 48(F), 9(C) 47(F), 8(C) 93% 7 CLR N/A N/A N/A 48 F N/A 4514
17/08/17 04:13 000 00 N/A N/A 30.11 48(F), 9(C) 47(F), 8(C) 93% 7 CLR N/A N/A N/A 48 F N/A 4513
17/08/17 04:12 000 00 N/A N/A 30.11 48(F), 9(C) 47(F), 8(C) 93% 7 CLR N/A N/A N/A 48 F N/A 4512
17/08/17 04:11 000 00 N/A N/A 30.11 49(F), 9(C) 47(F), 8(C) 93% 7 CLR N/A N/A N/A 49 F N/A 4511
17/08/17 04:10 000 00 N/A N/A 30.12 49(F), 9(C) 47(F), 8(C) 93% 7 CLR N/A N/A N/A 49 F N/A 4510
17/08/17 04:09 000 00 N/A N/A 30.12 49(F), 9(C) 47(F), 8(C) 93% 7 CLR N/A N/A N/A 49 F N/A 4509
17/08/17 04:08 000 00 N/A N/A 30.12 49(F), 9(C) 47(F), 8(C) 93% 7 CLR N/A N/A N/A 49 F N/A 4508
17/08/17 04:07 000 00 N/A N/A 30.12 49(F), 9(C) 47(F), 8(C) 93% 7 CLR N/A N/A N/A 49 F N/A 4507
17/08/17 04:06 000 00 N/A N/A 30.12 49(F), 9(C) 47(F), 8(C) 93% 7 CLR N/A N/A N/A 49 F N/A 4506
17/08/17 04:05 000 00 N/A N/A 30.12 49(F), 9(C) 47(F), 8(C) 93% 7 CLR N/A N/A N/A 49 F N/A 4505
17/08/17 04:04 000 00 N/A N/A 30.12 49(F), 9(C) 48(F), 9(C) 100% 7 CLR N/A N/A N/A 49 F N/A 4504
17/08/17 04:03 000 00 N/A N/A 30.12 49(F), 9(C) 48(F), 9(C) 100% 7 CLR N/A N/A N/A 49 F N/A 4503
17/08/17 04:02 000 00 N/A N/A 30.12 49(F), 9(C) 48(F), 9(C) 100% 7 CLR N/A N/A N/A 49 F N/A 4502
17/08/17 04:01 000 00 N/A N/A 30.12 49(F), 9(C) 48(F), 9(C) 100% 7 CLR N/A N/A N/A 49 F N/A 4501
17/08/17 04:00 000 00 N/A N/A 30.12 49(F), 9(C) 48(F), 9(C) 100% 7 CLR N/A N/A N/A 49 F N/A 4500
17/08/17 03:59 000 00 N/A N/A 30.12 49(F), 9(C) 48(F), 9(C) 100% 7 CLR N/A N/A N/A 49 F N/A 4499
17/08/17 03:58 000 00 N/A N/A 30.12 49(F), 9(C) 47(F), 8(C) 93% 7 CLR N/A N/A N/A 49 F N/A 4498
17/08/17 03:57 000 00 N/A N/A 30.12 48(F), 9(C) 47(F), 8(C) 93% 7 CLR N/A N/A N/A 48 F N/A 4497
17/08/17 03:56 000 00 N/A N/A 30.12 48(F), 9(C) 47(F), 8(C) 93% 7 CLR N/A N/A N/A 48 F N/A 4496
17/08/17 03:55 000 00 N/A N/A 30.12 49(F), 9(C) 47(F), 8(C) 93% 7 CLR N/A N/A N/A 49 F N/A 4495
17/08/17 03:54 000 00 N/A N/A 30.12 49(F), 9(C) 47(F), 8(C) 93% 7 CLR N/A N/A N/A 49 F N/A 4494
17/08/17 03:53 000 00 N/A N/A 30.12 49(F), 9(C) 47(F), 8(C) 93% 7 CLR N/A N/A N/A 49 F N/A 4493
17/08/17 03:52 000 00 N/A N/A 30.12 49(F), 9(C) 47(F), 8(C) 93% 7 CLR N/A N/A N/A 49 F N/A 4492
17/08/17 03:51 000 00 N/A N/A 30.12 49(F), 9(C) 47(F), 8(C) 93% 7 CLR N/A N/A N/A 49 F N/A 4491
17/08/17 03:50 000 00 N/A N/A 30.12 49(F), 9(C) 47(F), 8(C) 93% 7 CLR N/A N/A N/A 49 F N/A 4490
17/08/17 03:49 000 00 N/A N/A 30.12 49(F), 9(C) 47(F), 8(C) 93% 7 CLR N/A N/A N/A 49 F N/A 4489
17/08/17 03:48 000 00 N/A N/A 30.12 49(F), 9(C) 48(F), 9(C) 100% 7 CLR N/A N/A N/A 49 F N/A 4488
17/08/17 03:47 000 00 N/A N/A 30.12 49(F), 9(C) 48(F), 9(C) 100% 7 CLR N/A N/A N/A 49 F N/A 4487
17/08/17 03:46 000 00 N/A N/A 30.12 49(F), 9(C) 48(F), 9(C) 100% 7 CLR N/A N/A N/A 49 F N/A 4486
17/08/17 03:45 000 00 N/A N/A 30.12 49(F), 9(C) 48(F), 9(C) 100% 7 CLR N/A N/A N/A 49 F N/A 4485
17/08/17 03:44 000 00 N/A N/A 30.12 49(F), 9(C) 48(F), 9(C) 100% 7 CLR N/A N/A N/A 49 F N/A 4484
17/08/17 03:43 000 00 N/A N/A 30.12 49(F), 9(C) 47(F), 8(C) 93% 7 CLR N/A N/A N/A 49 F N/A 4483
17/08/17 03:42 000 00 N/A N/A 30.12 49(F), 9(C) 47(F), 8(C) 93% 7 CLR N/A N/A N/A 49 F N/A 4482
17/08/17 03:41 000 00 N/A N/A 30.12 49(F), 9(C) 47(F), 8(C) 93% 7 CLR N/A N/A N/A 49 F N/A 4481
17/08/17 03:40 000 00 N/A N/A 30.12 49(F), 9(C) 47(F), 8(C) 93% 7 CLR N/A N/A N/A 49 F N/A 4480